Home > Weather > Constantine > Past weeks

Flag for Algeria Past Weather in Constantine, Algeria — Yesterday and Last 2 Weeks

Now
91 °F

Passing clouds.


Feels Like: 88 °F
Forecast: 62 / 97 °F
Wind: 9 mph from North

Location: Constantine Airport

Current Time: Jun 25, 2016 at 6:52:32 PM

Latest Report: Jun 25, 2016 at 6:00 PM


Visibility: N/A

Pressure: 30.04 "Hg (28.23 "Hg at 557m altitude)

Humidity: 20%

Dew Point: 45 °F

Location of ConstantineLocation

Past Weather in Constantine — Graph

°F

Constantine Temperature Yesterday

Maximum temperature yesterday: 91 °F (at 1:30 PM)
Minimum temperature yesterday: 55 °F (at 5:00 AM)
Average temperature yesterday: 75 °F

High & Low Weather Summary for the Past Weeks

 TemperatureHumidityPressure
High106 °F (Jun 15, 3:30 PM)94% (Jun 13, 6:30 AM)30.30 "Hg (Jun 13, 6:30 AM)
Low46 °F (Jun 21, 5:00 AM)9% (Jun 15, 3:30 PM)29.68 "Hg (Jun 15, 4:00 PM)
Average72 °F53%30.06 "Hg
* Reported Jun 10 5:00 PM — Jun 25 5:30 PM, Constantine, Weather by CustomWeather, © 2016

Note: Actual official high and low records may vary slightly from our data, if they occured in-between our weather recording intervals... More about our weather records

Advertising

Constantine Weather History for the Previous 24 Hours

Scroll right to see more
 ConditionsComfort  
Time TempWeatherWind HumidityBarometerVisibility
5:30 PM
Sat, Jun 25
91 °FPassing clouds.8 mph21%30.04 "HgN/A
5:00 PM93 °FPassing clouds.9 mph20%30.04 "HgN/A
4:30 PM91 °FPassing clouds.8 mph20%30.04 "HgN/A
4:00 PM93 °FPassing clouds.10 mph20%30.04 "HgN/A
3:30 PM93 °FPassing clouds.10 mph21%30.04 "HgN/A
3:00 PM91 °FPassing clouds.9 mph23%30.04 "HgN/A
2:30 PM93 °FPassing clouds.7 mph21%30.07 "HgN/A
2:00 PM93 °FPassing clouds.5 mph23%30.07 "HgN/A
1:30 PM91 °FSunny.9 mph23%30.07 "Hg10 mi
1:00 PM90 °FSunny.7 mph24%30.07 "Hg10 mi
12:00 PM91 °FSunny.7 mph24%30.07 "Hg10 mi
11:30 AM88 °FSunny.7 mph27%30.07 "Hg10 mi
11:00 AM88 °FSunny.6 mph27%30.09 "Hg10 mi
10:30 AM86 °FSunny.5 mph27%30.09 "Hg10 mi
10:00 AM84 °FSunny.3 mph31%30.09 "Hg10 mi
9:30 AM82 °FSunny.3 mph32%30.09 "Hg10 mi
9:00 AM81 °FSunny.3 mph32%30.09 "Hg10 mi
8:30 AM77 °FSunny.No wind39%30.09 "Hg10 mi
8:00 AM75 °FSunny.No wind41%30.09 "Hg10 mi
7:30 AM72 °FSunny.No wind47%30.07 "Hg10 mi
7:00 AM66 °FSunny.No wind52%30.09 "Hg10 mi
6:30 AM66 °FSunny.No wind52%30.07 "Hg10 mi
6:00 AM63 °FSunny.No wind59%30.07 "Hg10 mi
5:30 AM63 °FSunny.No wind59%30.07 "Hg10 mi
5:00 AM63 °FClear.No wind59%30.07 "Hg10 mi
4:30 AM64 °FClear.No wind56%30.07 "Hg10 mi
4:00 AM63 °FClear.No wind59%30.07 "Hg10 mi
3:30 AM64 °FClear.No wind56%30.07 "Hg10 mi
3:00 AM63 °FClear.No wind64%30.07 "Hg10 mi
2:30 AM66 °FClear.No wind52%30.09 "Hg10 mi
2:00 AM64 °FClear.No wind60%30.09 "Hg10 mi
1:30 AM66 °FClear.No wind52%30.09 "Hg10 mi
12:30 AM66 °FClear.5 mph52%30.12 "Hg10 mi
12:00 AM66 °FClear.5 mph52%30.12 "Hg10 mi
11:30 PM
Fri, Jun 24
68 °FClear.5 mph49%30.12 "Hg10 mi
11:00 PM72 °FClear.5 mph44%30.12 "Hg10 mi
10:30 PM72 °FClear.6 mph44%30.12 "Hg10 mi
10:00 PM72 °FClear.3 mph44%30.12 "Hg10 mi
9:30 PM73 °FClear.5 mph44%30.12 "Hg10 mi
9:00 PM75 °FClear.8 mph39%30.12 "Hg10 mi
8:30 PM75 °FClear.7 mph39%30.12 "Hg10 mi
8:00 PM77 °FClear.7 mph39%30.12 "Hg10 mi
7:30 PM81 °FSunny.12 mph34%30.09 "Hg10 mi
7:00 PM82 °FSunny.12 mph32%30.09 "Hg10 mi
6:30 PM84 °FPassing clouds.14 mph31%30.09 "HgN/A
6:00 PM86 °FPassing clouds.14 mph31%30.09 "HgN/A
Weather by CustomWeather, © 2016

See weather overviewHow to use our weather pages